TimeEDT,TemperatureF,Dew PointF,Humidity,Sea Level PressureIn,VisibilityMPH,Wind Direction,Wind SpeedMPH,Gust SpeedMPH,PrecipitationIn,Events,Conditions,WindDirDegrees,DateUTC
12:15 AM,57.2,57.2,100,30.05,2.5,Calm,Calm,-,N/A,,Overcast,0,2012-10-03 04:15:00
12:35 AM,57.2,57.2,100,30.04,2.0,Calm,Calm,-,N/A,,Overcast,0,2012-10-03 04:35:00
12:55 AM,57.2,57.2,100,30.05,3.0,Calm,Calm,-,N/A,,Overcast,0,2012-10-03 04:55:00
1:15 AM,57.2,57.2,100,30.04,2.5,Calm,Calm,-,N/A,,Overcast,0,2012-10-03 05:15:00
1:35 AM,57.2,57.2,100,30.04,3.0,Calm,Calm,-,N/A,,Overcast,0,2012-10-03 05:35:00
1:55 AM,57.2,57.2,100,30.05,3.0,Calm,Calm,-,N/A,,Overcast,0,2012-10-03 05:55:00
2:15 AM,57.2,57.2,100,30.04,1.8,Calm,Calm,-,N/A,,Overcast,0,2012-10-03 06:15:00
2:35 AM,57.2,57.2,100,30.04,1.8,Calm,Calm,-,N/A,,Overcast,0,2012-10-03 06:35:00
2:55 AM,57.2,57.2,100,30.05,4.0,Calm,Calm,-,N/A,,Overcast,0,2012-10-03 06:55:00
3:15 AM,57.2,57.2,100,30.04,4.0,Calm,Calm,-,N/A,,Overcast,0,2012-10-03 07:15:00
3:35 AM,57.2,57.2,100,30.04,1.8,Calm,Calm,-,N/A,,Overcast,0,2012-10-03 07:35:00
3:55 AM,57.2,57.2,100,30.04,3.0,Calm,Calm,-,N/A,,Overcast,0,2012-10-03 07:55:00
4:15 AM,57.2,57.2,100,30.04,2.0,Calm,Calm,-,N/A,,Overcast,0,2012-10-03 08:15:00
4:55 AM,57.2,57.2,100,30.04,2.0,Calm,Calm,-,N/A,,Overcast,0,2012-10-03 08:55:00
5:15 AM,57.2,57.2,100,30.03,5.0,SSE,3.5,-,0.01,,Overcast,160,2012-10-03 09:15:00
5:35 AM,57.2,57.2,100,30.04,1.2,Calm,Calm,-,0.01,,Overcast,0,2012-10-03 09:35:00
5:55 AM,57.2,57.2,100,30.04,1.8,West,3.5,-,0.01,,Overcast,270,2012-10-03 09:55:00
6:55 AM,57.2,57.2,100,30.05,5.0,Calm,Calm,-,0.14,,Overcast,0,2012-10-03 10:55:00
7:15 AM,57.2,57.2,100,30.05,0.2,Calm,Calm,-,N/A,,Overcast,0,2012-10-03 11:15:00
7:35 AM,57.2,57.2,100,30.05,1.8,SSE,3.5,-,N/A,,Overcast,150,2012-10-03 11:35:00
8:15 AM,59.0,59.0,100,30.07,5.0,SSE,4.6,-,N/A,,Overcast,160,2012-10-03 12:15:00
8:35 AM,60.8,59.0,94,30.08,10.0,Calm,Calm,-,N/A,,Overcast,0,2012-10-03 12:35:00
8:55 AM,60.8,60.8,100,30.08,4.0,ESE,9.2,-,N/A,,Mostly Cloudy,120,2012-10-03 12:55:00
9:15 AM,60.8,60.8,100,30.08,10.0,SW,5.8,-,N/A,,Overcast,220,2012-10-03 13:15:00
9:35 AM,60.8,60.8,100,30.08,8.0,SE,3.5,-,N/A,,Overcast,140,2012-10-03 13:35:00
9:55 AM,60.8,60.8,100,30.08,6.0,SE,5.8,-,0.01,,Overcast,130,2012-10-03 13:55:00
10:35 AM,62.6,60.8,94,30.08,10.0,SSW,4.6,-,N/A,,Overcast,200,2012-10-03 14:35:00
11:15 AM,62.6,60.8,94,30.08,10.0,SE,10.4,-,N/A,,Overcast,140,2012-10-03 15:15:00
11:35 AM,62.6,60.8,94,30.07,10.0,SE,11.5,16.1,N/A,,Overcast,140,2012-10-03 15:35:00
12:15 PM,62.6,60.8,94,30.08,10.0,SE,10.4,16.1,N/A,,Overcast,140,2012-10-03 16:15:00
12:35 PM,62.6,60.8,94,30.08,10.0,SE,10.4,-,N/A,,Overcast,140,2012-10-03 16:35:00
12:55 PM,62.6,60.8,94,30.07,10.0,SE,8.1,-,N/A,,Overcast,140,2012-10-03 16:55:00
1:15 PM,62.6,60.8,94,30.07,10.0,SSE,6.9,-,N/A,,Overcast,150,2012-10-03 17:15:00
1:55 PM,64.4,60.8,88,30.06,10.0,SE,11.5,-,N/A,,Overcast,130,2012-10-03 17:55:00
2:15 PM,64.4,60.8,88,30.06,10.0,SE,9.2,-,N/A,,Overcast,130,2012-10-03 18:15:00
3:15 PM,64.4,60.8,88,30.07,10.0,SSE,4.6,-,N/A,,Overcast,160,2012-10-03 19:15:00
3:35 PM,64.4,60.8,88,30.07,10.0,SSE,6.9,-,N/A,,Overcast,150,2012-10-03 19:35:00
3:55 PM,64.4,60.8,88,30.07,10.0,SSE,5.8,-,N/A,,Overcast,150,2012-10-03 19:55:00
4:15 PM,64.4,60.8,88,30.08,10.0,SSE,6.9,-,N/A,,Overcast,150,2012-10-03 20:15:00
4:35 PM,64.4,60.8,88,30.08,10.0,South,5.8,-,N/A,,Overcast,170,2012-10-03 20:35:00
4:55 PM,62.6,60.8,94,30.08,9.0,SE,6.9,-,N/A,,Overcast,140,2012-10-03 20:55:00
5:15 PM,62.6,60.8,94,30.09,10.0,SE,5.8,-,N/A,,Overcast,140,2012-10-03 21:15:00
5:35 PM,64.4,60.8,88,30.09,10.0,SE,4.6,-,N/A,,Overcast,140,2012-10-03 21:35:00
5:55 PM,64.4,60.8,88,30.09,10.0,SE,5.8,-,N/A,,Overcast,140,2012-10-03 21:55:00
6:15 PM,64.4,60.8,88,30.09,10.0,SSE,11.5,-,N/A,,Overcast,160,2012-10-03 22:15:00
6:55 PM,62.6,60.8,94,30.09,10.0,SSE,8.1,-,N/A,,Overcast,150,2012-10-03 22:55:00
7:15 PM,62.6,60.8,94,30.10,10.0,SE,8.1,-,N/A,,Overcast,140,2012-10-03 23:15:00
7:35 PM,62.6,60.8,94,30.11,10.0,SSE,6.9,-,N/A,,Overcast,160,2012-10-03 23:35:00
7:55 PM,62.6,60.8,94,30.11,8.0,SSE,5.8,-,0.01,,Overcast,150,2012-10-03 23:55:00
8:15 PM,62.6,60.8,94,30.12,10.0,SE,3.5,-,N/A,,Overcast,140,2012-10-04 00:15:00
8:35 PM,62.6,60.8,94,30.12,10.0,SE,4.6,-,N/A,,Overcast,140,2012-10-04 00:35:00
9:15 PM,62.6,60.8,94,30.12,10.0,SSE,8.1,-,N/A,,Overcast,160,2012-10-04 01:15:00
9:55 PM,62.6,60.8,94,30.12,10.0,SSE,9.2,-,N/A,,Overcast,160,2012-10-04 01:55:00
10:15 PM,62.6,60.8,94,30.13,10.0,SSE,6.9,-,N/A,,Overcast,160,2012-10-04 02:15:00
10:35 PM,-9999,-9999,N/A,30.13,10.0,SSE,6.9,-,N/A,,Overcast,150,2012-10-04 02:35:00
11:15 PM,62.6,60.8,94,30.13,10.0,SSE,8.1,-,N/A,,Overcast,160,2012-10-04 03:15:00
11:35 PM,62.6,60.8,94,30.13,10.0,South,5.8,-,N/A,,Overcast,180,2012-10-04 03:35:00
11:55 PM,62.6,60.8,94,30.13,10.0,South,4.6,-,N/A,,Overcast,170,2012-10-04 03:55:00